WM0F Weather Reports


Display with metric or nautical units.
time (UTC)temp
F
wind
direction
speed
MPH
gust
MPH
rain 1hr
in
rain 24hr
in
rain mn
in
humidity
%
barometer
mb
20260504231507 61 289 7.0 13.0 0.00 0.00 0.00 41 1011.1
20260504231003 62 254 0.0 8.0 0.00 0.00 0.00 41 1011.0
20260504230505 62 251 1.0 8.0 0.00 0.00 0.00 41 1010.8
20260504230006 62 272 3.0 11.0 0.00 0.00 0.00 40 1010.7
20260504225506 62 285 3.0 12.0 0.00 0.00 0.00 40 1010.5
20260504225003 63 247 5.0 12.0 0.00 0.00 0.00 39 1010.3
20260504224516 63 280 3.0 12.0 0.00 0.00 0.00 39 1010.1
20260504224005 64 299 6.0 12.0 0.00 0.00 0.00 38 1010.1
20260504223503 64 309 5.0 15.0 0.00 0.00 0.00 37 1010.0
20260504223010 64 314 6.0 15.0 0.00 0.00 0.00 37 1010.0
20260504222503 65 330 7.0 14.0 0.00 0.00 0.00 36 1010.1
20260504222003 65 280 5.0 14.0 0.00 0.00 0.00 37 1010.0
20260504221506 65 333 5.0 12.0 0.00 0.00 0.00 37 1009.9
20260504221005 65 334 5.0 12.0 0.00 0.00 0.00 36 1010.0
20260504220503 65 321 5.0 12.0 0.00 0.00 0.00 34 1010.1
20260504220006 66 23 2.0 16.0 0.00 0.00 0.00 34 1010.1
20260504215504 66 66 2.0 16.0 0.00 0.00 0.00 36 1010.2
20260504215004 66 339 3.0 7.0 0.00 0.00 0.00 33 1010.4
20260504214508 66 6 3.0 7.0 0.00 0.00 0.00 35 1010.3
20260504214003 65 4 1.0 7.0 0.00 0.00 0.00 36 1010.5
20260504213506 64 343 0.0 5.0 0.00 0.00 0.00 37 1010.6
20260504213020 64 343 0.0 5.0 0.00 0.00 0.00 37 1010.7
20260504212504 63 347 2.0 6.0 0.00 0.00 0.00 38 1010.7
20260504212003 63 316 1.0 11.0 0.00 0.00 0.00 38 1010.8
20260504211528 63 340 4.0 14.0 0.00 0.00 0.00 37 1011.0
20260504211004 63 320 4.0 14.0 0.00 0.00 0.00 38 1011.0
20260504210504 64 339 7.0 16.0 0.00 0.00 0.00 37 1011.1
20260504210010 64 340 8.0 19.0 0.00 0.00 0.00 36 1011.1
20260504205504 64 347 7.0 24.0 0.00 0.00 0.00 36 1010.9
20260504205005 65 329 11.0 25.0 0.00 0.00 0.00 34 1010.9
20260504204515 66 335 14.0 25.0 0.00 0.00 0.00 34 1010.4
20260504204003 66 316 14.0 22.0 0.00 0.00 0.00 32 1010.3
20260504203503 66 335 10.0 21.0 0.00 0.00 0.00 31 1010.1
20260504203013 66 335 9.0 23.0 0.00 0.00 0.00 32 1010.0
20260504202503 65 20 7.0 24.0 0.00 0.00 0.00 32 1009.7
20260504202003 65 12 12.0 24.0 0.00 0.00 0.00 33 1009.6
20260504201513 64 323 9.0 23.0 0.00 0.00 0.00 32 1009.9
20260504201004 64 329 7.0 23.0 0.00 0.00 0.00 34 1009.8
20260504200504 64 327 12.0 26.0 0.00 0.00 0.00 32 1010.0
20260504200016 65 336 10.0 29.0 0.00 0.00 0.00 31 1010.1
20260504195503 67 339 12.0 29.0 0.00 0.00 0.00 28 1010.1
20260504195005 68 344 12.0 23.0 0.00 0.00 0.00 25 1009.9
20260504194513 69 322 12.0 21.0 0.00 0.00 0.00 22 1009.6
20260504194005 69 327 6.0 22.0 0.00 0.00 0.00 22 1009.5
20260504193505 70 344 9.0 22.0 0.00 0.00 0.00 21 1009.5
20260504193003 71 354 8.0 18.0 0.00 0.00 0.00 21 1009.4
20260504192507 71 312 6.0 20.0 0.00 0.00 0.00 21 1009.4
20260504192004 72 280 7.0 20.0 0.00 0.00 0.00 23 1009.3
20260504191507 73 272 9.0 24.0 0.00 0.00 0.00 23 1009.4
20260504191003 73 280 12.0 24.0 0.00 0.00 0.00 24 1009.4
20260504190503 73 258 10.0 18.0 0.00 0.00 0.00 24 1009.4
20260504190002 72 252 6.0 22.0 0.00 0.00 0.00 25 1009.4
20260504185504 72 290 11.0 22.0 0.00 0.00 0.00 24 1009.5
20260504185002 72 249 11.0 22.0 0.00 0.00 0.00 24 1009.5
20260504184503 72 285 5.0 13.0 0.00 0.00 0.00 25 1009.4
20260504184004 72 256 3.0 9.0 0.00 0.00 0.00 27 1009.5
20260504183502 71 248 1.0 13.0 0.00 0.00 0.00 26 1009.5
20260504183009 71 247 4.0 13.0 0.00 0.00 0.00 24 1009.6
20260504182503 71 244 3.0 8.0 0.00 0.00 0.00 27 1009.6
20260504182005 71 241 2.0 6.0 0.00 0.00 0.00 26 1009.6
20260504181505 72 247 2.0 6.0 0.00 0.00 0.00 26 1009.6
20260504181005 72 238 1.0 6.0 0.00 0.00 0.00 27 1009.7
20260504180505 71 253 1.0 4.0 0.00 0.00 0.00 26 1009.7
20260504180004 71 229 1.0 9.0 0.00 0.00 0.00 27 1009.8
20260504175503 70 214 0.0 9.0 0.00 0.00 0.00 27 1009.8
20260504175004 70 203 1.0 9.0 0.00 0.00 0.00 28 1009.9
20260504174503 70 270 0.0 4.0 0.00 0.00 0.00 28 1009.9
20260504174003 70 253 1.0 5.0 0.00 0.00 0.00 28 1010.0
20260504173504 69 262 0.0 5.0 0.00 0.00 0.00 27 1010.0
20260504173004 69 234 1.0 5.0 0.00 0.00 0.00 27 1010.1
20260504172504 69 231 0.0 9.0 0.00 0.00 0.00 27 1010.1
20260504172004 69 270 0.0 9.0 0.00 0.00 0.00 27 1010.1
20260504171506 69 272 2.0 9.0 0.00 0.00 0.00 26 1010.2
20260504171007 69 248 1.0 9.0 0.00 0.00 0.00 27 1010.3
20260504170504 68 253 4.0 10.0 0.00 0.00 0.00 26 1010.3
20260504151003 63 255 1.0 5.0 0.00 0.00 0.00 29 1010.5
20260504150504 62 241 0.0 3.0 0.00 0.00 0.00 31 1010.5
20260504141006 53 316 0.0 1.0 0.00 0.00 0.00 42 1010.8
20260504140506 53 293 0.0 1.0 0.00 0.00 0.00 42 1010.8
20260504130506 46 81 0.0 1.0 0.00 0.00 0.00 47 1010.7
20260504110503 45 318 0.0 1.0 0.00 0.00 0.00 43 1011.1
20260504100503 45 318 0.0 1.0 0.00 0.00 0.00 43 1011.2
20260504082004 49 318 0.0 0.0 0.00 0.00 0.00 41 1011.8
20260504081520 49 319 0.0 0.0 0.00 0.00 0.00 41 1011.8
20260504081004 49 318 0.0 0.0 0.00 0.00 0.00 42 1011.9
20260504080505 50 318 0.0 0.0 0.00 0.00 0.00 42 1012.0
20260504050507 57 323 0.0 0.0 0.00 0.00 0.00 35 1013.2
20260504045504 59 323 0.0 2.0 0.00 0.00 0.00 34 1013.1
20260504045004 59 323 0.0 4.0 0.00 0.00 0.00 33 1013.1
20260504044522 59 323 1.0 5.0 0.00 0.00 0.00 32 1013.1
20260504044006 59 323 0.0 6.0 0.00 0.00 0.00 31 1013.1
20260504043509 60 322 1.0 7.0 0.00 0.00 0.00 31 1013.1
20260504043024 60 321 3.0 7.0 0.00 0.00 0.00 30 1013.0
20260504042504 60 360 2.0 6.0 0.00 0.00 0.00 30 1013.0
20260504042010 60 1 1.0 10.0 0.00 0.00 0.00 30 1012.9
20260504041524 60 17 4.0 11.0 0.00 0.00 0.00 29 1013.1
20260504041006 59 12 3.0 11.0 0.00 0.00 0.00 29 1013.1
20260504040508 59 19 3.0 9.0 0.00 0.00 0.00 30 1012.9
20260504040025 59 321 4.0 9.0 0.00 0.00 0.00 30 1012.9
20260504035508 59 321 4.0 9.0 0.00 0.00 0.00 30 1012.7
20260504035006 59 320 3.0 9.0 0.00 0.00 0.00 30 1012.7
20260504034526 59 312 3.0 8.0 0.00 0.00 0.00 30 1012.7
20260504034009 59 295 2.0 5.0 0.00 0.00 0.00 31 1012.8
20260504033504 59 245 0.0 2.0 0.00 0.00 0.00 32 1012.4
20260504033024 59 243 0.0 0.0 0.00 0.00 0.00 33 1012.4
20260504032508 59 243 0.0 0.0 0.00 0.00 0.00 34 1012.4
20260504032004 60 243 0.0 0.0 0.00 0.00 0.00 32 1012.4
20260504031523 60 243 0.0 0.0 0.00 0.00 0.00 32 1012.4
20260504031009 60 243 0.0 0.0 0.00 0.00 0.00 32 1012.4
20260504030509 60 243 0.0 0.0 0.00 0.00 0.00 32 1012.4
20260504030017 61 243 0.0 0.0 0.00 0.00 0.00 32 1012.4
20260504025507 61 243 0.0 0.0 0.00 0.00 0.00 30 1012.3
20260504025011 62 243 0.0 0.0 0.00 0.00 0.00 29 1012.3
20260504024520 62 243 0.0 0.0 0.00 0.00 0.00 28 1012.2
20260504024009 62 243 0.0 0.0 0.00 0.00 0.00 29 1012.2
20260504023507 63 243 0.0 0.0 0.00 0.00 0.00 29 1012.2
20260504023019 63 243 0.0 0.0 0.00 0.00 0.00 28 1012.2
20260504022505 64 243 0.0 0.0 0.00 0.00 0.00 28 1012.1
20260504022002 64 243 0.0 0.0 0.00 0.00 0.00 28 1012.1
20260504021510 65 243 0.0 0.0 0.00 0.00 0.00 28 1012.1
20260504021004 65 243 0.0 0.0 0.00 0.00 0.00 29 1012.1
20260504020504 66 243 0.0 2.0 0.00 0.00 0.00 28 1012.0
20260504020012 66 243 0.0 2.0 0.00 0.00 0.00 27 1012.0
20260504015504 67 243 0.0 2.0 0.00 0.00 0.00 27 1011.9
20260504015006 67 243 0.0 2.0 0.00 0.00 0.00 27 1011.9
20260504014504 68 243 0.0 0.0 0.00 0.00 0.00 26 1011.9
20260504014004 68 243 0.0 0.0 0.00 0.00 0.00 25 1011.9
20260504013506 68 243 0.0 0.0 0.00 0.00 0.00 26 1011.8
20260504013021 69 243 0.0 5.0 0.00 0.00 0.00 25 1011.8
20260504012503 69 243 0.0 5.0 0.00 0.00 0.00 25 1011.9
20260504012004 69 243 0.0 3.0 0.00 0.00 0.00 25 1012.0
20260504011521 69 243 0.0 8.0 0.00 0.00 0.00 24 1012.0
20260504011006 69 243 2.0 8.0 0.00 0.00 0.00 24 1012.0
20260504010508 69 249 2.0 6.0 0.00 0.00 0.00 24 1012.1
20260504010016 69 234 2.0 5.0 0.00 0.00 0.00 24 1012.1
20260504005505 68 245 2.0 5.0 0.00 0.00 0.00 24 1012.1
20260504005004 68 241 1.0 5.0 0.00 0.00 0.00 24 1012.2
20260504004518 68 183 0.0 2.0 0.00 0.00 0.00 25 1012.1
20260504004004 68 183 0.0 2.0 0.00 0.00 0.00 25 1012.1
20260504003511 68 183 0.0 1.0 0.00 0.00 0.00 24 1012.1
20260504003007 68 177 0.0 4.0 0.00 0.00 0.00 24 1012.2
20260504002504 68 248 0.0 5.0 0.00 0.00 0.00 23 1012.3
20260504002007 69 247 0.0 9.0 0.00 0.00 0.00 23 1012.2
20260504001508 69 241 3.0 9.0 0.00 0.00 0.00 24 1012.3
20260504001006 69 227 3.0 9.0 0.00 0.00 0.00 24 1012.2
20260504000506 69 227 3.0 8.0 0.00 0.00 0.00 24 1012.2
20260504000023 69 227 1.0 7.0 0.00 0.00 0.00 23 1012.3
20260503235502 69 223 2.0 7.0 0.00 0.00 0.00 23 1012.4
20260503235006 69 256 0.0 8.0 0.00 0.00 0.00 23 1012.5
20260503234508 69 219 3.0 8.0 0.00 0.00 0.00 23 1012.5
20260503234006 69 239 2.0 6.0 0.00 0.00 0.00 22 1012.5
20260503233503 69 242 1.0 10.0 0.00 0.00 0.00 21 1012.5
20260503233015 70 246 2.0 15.0 0.00 0.00 0.00 20 1012.5
20260503232506 70 222 1.0 15.0 0.00 0.00 0.00 21 1012.5
20260503232004 70 235 2.0 8.0 0.00 0.00 0.00 21 1012.5